Showing default

YAM-11, 68991

Orbit data source: Space-Track

YAM-11, 68991 is an American payload satellite in SSO that was launched on Sun, 03 May 2026 UTC via an FALCON 9 launch vehicle from the Air Force Western Test Range (AFWTR). Payload-class satellites include a variety of spacecraft equipped with specific instruments for various scientific and technological missions. These include communications satellites like Starlink; space stations such as the ISS; scientific satellites like the Hubble; Earth observation satellites from companies like Planet Labs, Umbra, and HawkEye 360; GPS; miniature CubeSats for education and research; and military/defense satellites.

Loading next visibility...
Identifier
68991, 2026-100M
Orbit
SSO
Country
Flag of USUS
Related business
Manufacturer
Airbus/Toulouse
Mission
Operational spacecraft
Bus & Motor
ARROW, Unknown motor
Mass
~150 kg wet, ~140 kg dry
Launch date (UTC)
2026-05-03 (1 month ago)
Launch vehicle
FALCON 9
Launch site
Air Force Western Test Range (AFWTR)
Object type
Payload
Rocket body
Debris
Shape & HBR
Unknown shape, 14.5 m
Radar Cross Section
Large (>1 m²)

Expand to show TLE details & history
Last TLE update: 6 hours ago

TLE from 6 hours ago
0 YAM-11
1 68991U 26100M   26168.83335647 -.00059461  00000-0 -61224-2 0  9998
2 68991  97.7360  66.1713 0011332  83.0027 136.8700 14.90561959  5426
Epoch: 2026-06-17T20:00Z
TLE epoch observation values (Epoch: 2026-06-17T20:00:01.999Z)
Latitude
-39.79559°
Longitude
33.61529°
Altitude
617.207 km
Speed
7.546 km/s
True Right ascension
15h 58m 50s
True Declination
-39° 37' 23"
Sunlit
Object was in full shadow at epoch
Visualization orbit readout
Latitude
Unknown
Longitude
Unknown
Altitude
Unknown
Speed
Unknown
Apparent Right ascension
Unknown
Apparent Declination
Unknown
Sunlit
N/A
Visualization observer readout
Local Sidereal Time
12:18:57
Azimuth
Unknown
Elevation
Unknown
Doppler factor
Unknown
Orbital elements
Apogee altitude
601.102 km
Perigee altitude
585.302 km
Semi-major axis
6,971.339 km
Eccentricity
0.00113
Inclination
97.736°
RAAN
66.1713°
Arg. of periapsis
83.0027°
True anomaly
136.95868°
Mean anomaly
136.87°
Eccentric anomaly
136.91435°
Mean motion
3.7288 °/min
Orbital period
96.55 mins
BSTAR
-0.0061224
Loading maneuver chart data...
Computing Atmospheric mass density...
Loading historical data...
Loading historical data...
Loading historical data...
Loading historical data...
Loading historical data...
Loading historical data...
Loading historical data...

Documentation

Showing up to 5 results
|